Stations météo

réclame
Mon MeteoGroup
Pamplona/Noain, Espagne (8085): Température de l'air & dewpoint: 17.10.2017 10:00:00 - 23.10.2017 10:00:00 (CEST)Pamplona/Noain, Espagne (8085): Vitesse du vent: 17.10.2017 10:00:00 - 23.10.2017 10:00:00 (CEST)Pamplona/Noain, Espagne (8085): Direction du vent: 17.10.2017 10:00:00 - 23.10.2017 10:00:00 (CEST)Pamplona/Noain, Espagne (8085): reduced air pressure: 17.10.2017 10:00:00 - 23.10.2017 10:00:00 (CEST)Pamplona/Noain, Espagne (8085): visibility: 17.10.2017 10:00:00 - 23.10.2017 10:00:00 (CEST)
Date & Time tt [°C] td [°C] ff [km/h] ff [knt] dd ppp [hPa] vv [km]
23.10.2017 10:00:00 - - - - - - -
23.10.2017 09:00:00 5,5 5,5 0 0 N 1029,2 10
23.10.2017 08:00:00 4,6 4,6 0 0 N 1029,3 10
23.10.2017 07:00:00 5,4 5,4 0 0 N 1029,0 10
23.10.2017 06:00:00 5,9 5,9 0 0 N 1028,8 10
23.10.2017 05:00:00 6,4 6,3 2 1 S 1028,7 10
23.10.2017 04:00:00 7,2 6,8 0 0 N 1029,0 10
23.10.2017 03:00:00 8,4 8,1 0 0 N 1029,2 10
23.10.2017 02:00:00 8,5 7,4 0 0 N 1029,4 10
23.10.2017 01:00:00 9,4 8,1 2 1 - 1029,5 10
23.10.2017 00:00:00 10,3 8,9 2 1 - 1029,5 10
22.10.2017 23:00:00 10,4 8,3 8 4 NNW 1029,7 10
22.10.2017 22:00:00 10,5 8,3 11 6 NNW 1029,6 10
22.10.2017 21:00:00 10,1 8,5 8 4 WNW 1029,6 10
22.10.2017 20:00:00 10,6 9,4 8 4 W 1029,6 10
22.10.2017 19:00:00 12,1 7,8 11 6 NNW 1028,5 10
22.10.2017 18:00:00 12,5 7,8 15 8 NNW 1028,4 9
22.10.2017 17:00:00 12,3 10,1 15 8 WNW 1028,3 9
22.10.2017 16:00:00 12,0 9,9 18 10 NW 1028,2 7
22.10.2017 15:00:00 13,5 8,8 18 10 WNW 1028,0 10
22.10.2017 14:00:00 14,4 9,2 13 7 WNW 1028,5 10
22.10.2017 13:00:00 13,7 8,3 16 9 WNW 1029,1 10
22.10.2017 12:00:00 14,0 8,6 11 6 WNW 1029,0 10
22.10.2017 11:00:00 10,7 9,5 11 6 NW 1030,0 9
22.10.2017 10:00:00 10,0 9,4 9 5 NW 1029,9 10
22.10.2017 09:00:00 10,0 8,3 5 3 NW 1029,1 10
22.10.2017 08:00:00 9,8 8,4 11 6 NNW 1028,8 10
22.10.2017 07:00:00 10,3 7,5 2 1 - 1028,4 10
22.10.2017 06:00:00 10,0 7,6 0 0 N 1028,5 10
22.10.2017 05:00:00 10,0 7,2 9 5 N 1028,0 10
22.10.2017 04:00:00 10,5 7,1 13 7 NNW 1028,3 10
22.10.2017 03:00:00 10,6 8,4 5 3 N 1028,7 8
22.10.2017 02:00:00 11,3 7,6 5 3 N 1028,4 10
22.10.2017 01:00:00 11,4 7,9 0 0 N 1028,5 10
22.10.2017 00:00:00 11,1 7,4 11 6 NE 1028,3 10
21.10.2017 23:00:00 11,6 7,3 4 2 - 1028,0 10
21.10.2017 22:00:00 12,2 7,2 16 9 N 1027,8 10
21.10.2017 21:00:00 12,5 6,8 8 4 N 1027,6 22
21.10.2017 20:00:00 13,0 7,2 13 7 NNW 1026,9 10
21.10.2017 19:00:00 13,2 6,3 13 7 NNW 1026,2 10
21.10.2017 18:00:00 14,1 7,4 16 9 N 1025,4 20
21.10.2017 17:00:00 14,4 8,8 18 10 N 1025,0 10
21.10.2017 16:00:00 14,6 8,8 11 6 N 1024,5 10
21.10.2017 15:00:00 14,0 9,5 4 2 WNW 1024,5 10
21.10.2017 14:00:00 13,2 9,3 18 10 NNW 1024,7 10
21.10.2017 13:00:00 12,6 10,0 21 11 NNW 1025,1 6
21.10.2017 12:00:00 13,9 13,9 5 3 NW 1024,2 3,8
21.10.2017 11:00:00 13,1 13,1 0 0 N 1024,2 2,7
21.10.2017 10:00:00 12,3 12,3 0 0 N 1023,7 3,3
21.10.2017 09:00:00 11,4 10,6 0 0 N 1022,5 10
21.10.2017 08:00:00 10,7 10,1 2 1 - 1022,1 10
21.10.2017 07:00:00 10,1 9,2 4 2 - 1022,0 10
21.10.2017 06:00:00 10,3 9,2 0 0 N 1021,7 10
21.10.2017 05:00:00 11,3 9,9 4 2 S 1021,3 10
21.10.2017 04:00:00 11,4 10,0 0 0 N 1021,5 10
21.10.2017 03:00:00 11,4 10,4 0 0 N 1021,1 10
21.10.2017 02:00:00 11,5 10,1 4 2 - 1020,6 10
21.10.2017 01:00:00 11,8 10,5 0 0 N 1020,3 10
21.10.2017 00:00:00 12,4 10,6 2 1 - 1020,3 10
20.10.2017 23:00:00 13,0 10,4 0 0 N 1020,3 10
20.10.2017 22:00:00 14,4 10,8 2 1 - 1019,8 10
20.10.2017 21:00:00 15,8 11,0 2 1 - 1019,2 10
20.10.2017 20:00:00 17,5 11,3 5 3 ESE 1018,6 10
20.10.2017 19:00:00 19,4 11,3 8 4 SSW 1017,7 10
20.10.2017 18:00:00 21,5 11,4 15 8 S 1017,2 10
20.10.2017 17:00:00 21,4 12,0 8 4 SE 1017,2 10
20.10.2017 16:00:00 21,4 11,7 4 2 SE 1017,0 10
20.10.2017 15:00:00 20,1 11,9 4 2 SE 1017,6 10
20.10.2017 14:00:00 17,4 10,7 5 3 SE 1018,3 10
20.10.2017 13:00:00 14,2 9,9 0 0 N 1019,7 10
20.10.2017 12:00:00 12,8 9,7 0 0 N 1019,8 10
20.10.2017 11:00:00 11,0 9,2 0 0 N 1020,0 10
20.10.2017 10:00:00 9,9 9,1 4 2 NW 1019,8 10
20.10.2017 09:00:00 8,4 8,4 0 0 N 1019,4 10
20.10.2017 08:00:00 8,2 7,8 0 0 N 1018,6 10
20.10.2017 07:00:00 8,1 8,1 0 0 N 1018,2 10
20.10.2017 06:00:00 7,9 7,9 0 0 N 1017,8 10
20.10.2017 05:00:00 8,0 7,8 0 0 N 1017,5 10
20.10.2017 04:00:00 8,2 7,7 0 0 N 1017,5 10
20.10.2017 03:00:00 8,3 7,5 0 0 N 1017,2 10
20.10.2017 02:00:00 8,8 7,7 0 0 N 1016,6 10
20.10.2017 01:00:00 9,9 9,1 0 0 N 1016,3 10
20.10.2017 00:00:00 10,5 8,8 0 0 N 1015,7 10
19.10.2017 23:00:00 11,2 9,0 2 1 - 1015,1 10
19.10.2017 22:00:00 11,9 8,9 0 0 N 1014,1 10
19.10.2017 21:00:00 13,0 8,7 0 0 N 1013,6 10
19.10.2017 20:00:00 13,8 8,8 0 0 N 1012,7 10
19.10.2017 19:00:00 16,4 8,6 2 1 - 1011,5 10
19.10.2017 18:00:00 19,1 8,9 2 1 - 1010,6 10
19.10.2017 17:00:00 19,3 9,8 5 3 SSE 1010,0 10
19.10.2017 16:00:00 18,6 10,4 0 0 N 1010,3 10
19.10.2017 15:00:00 17,6 10,6 2 1 - 1010,3 10
19.10.2017 14:00:00 16,7 10,7 0 0 N 1011,4 10
19.10.2017 13:00:00 17,2 11,0 2 1 - 1011,8 10
19.10.2017 12:00:00 15,0 11,0 0 0 N 1012,2 10
19.10.2017 11:00:00 13,3 10,8 5 3 WNW 1012,3 10
19.10.2017 10:00:00 11,9 10,5 4 2 - 1012,3 10
19.10.2017 09:00:00 11,1 10,3 4 2 - 1011,7 10
19.10.2017 08:00:00 11,4 10,8 11 6 NW 1011,5 10
19.10.2017 07:00:00 11,7 11,7 5 3 WNW 1011,4 8
19.10.2017 06:00:00 11,8 11,8 2 1 - 1011,0 5
19.10.2017 05:00:00 12,0 12,0 0 0 N 1011,0 6
19.10.2017 04:00:00 12,0 12,0 2 1 - 1011,2 10
19.10.2017 03:00:00 11,9 11,7 2 1 - 1011,3 10
19.10.2017 02:00:00 11,7 11,4 2 1 E 1011,1 10
19.10.2017 01:00:00 11,8 11,6 0 0 N 1011,2 10
19.10.2017 00:00:00 11,7 11,7 0 0 N 1011,4 10
18.10.2017 23:00:00 11,8 11,8 0 0 N 1011,2 8
18.10.2017 22:00:00 12,0 12,0 2 1 SSE 1010,9 9
18.10.2017 21:00:00 12,2 12,2 4 2 SSE 1010,4 8
18.10.2017 20:00:00 12,4 11,5 2 1 SSE 1010,3 9
18.10.2017 19:00:00 13,0 11,5 0 0 N 1009,8 8
18.10.2017 18:00:00 13,3 11,0 11 6 NW 1009,5 10
18.10.2017 17:00:00 17,0 11,4 8 4 WSW 1008,5 10
18.10.2017 16:00:00 17,9 11,3 15 8 SSE 1008,4 10
18.10.2017 15:00:00 18,0 12,3 22 12 S 1008,7 10
18.10.2017 14:00:00 16,1 13,6 22 12 SSE 1009,2 9
18.10.2017 13:00:00 17,8 13,8 29 16 SE 1009,5 10
18.10.2017 12:00:00 17,0 14,0 24 13 ESE - 10
18.10.2017 11:00:00 16,4 13,4 18 10 SE 1011,1 10
18.10.2017 10:00:00 16,9 13,1 15 8 ESE 1011,3 10
18.10.2017 09:00:00 16,0 12,9 18 10 ESE 1011,7 10
18.10.2017 08:00:00 15,8 13,1 11 6 E 1011,9 10
18.10.2017 07:00:00 16,1 13,0 18 10 E 1012,5 10
18.10.2017 06:00:00 16,5 12,9 13 7 E 1013,2 10
18.10.2017 05:00:00 16,4 12,0 15 8 ESE 1013,6 10
18.10.2017 04:00:00 16,6 12,1 13 7 E 1014,2 10
18.10.2017 03:00:00 17,2 12,3 18 10 ESE 1014,5 10
18.10.2017 02:00:00 17,7 12,4 24 13 SE 1014,7 10
18.10.2017 01:00:00 18,8 11,1 22 12 SE 1015,1 10
18.10.2017 00:00:00 19,1 10,6 5 3 SE 1015,6 10
17.10.2017 23:00:00 19,2 10,5 13 7 S 1016,0 10
17.10.2017 22:00:00 20,0 11,0 18 10 S 1015,9 10
17.10.2017 21:00:00 20,7 9,9 16 9 S 1015,5 10
17.10.2017 20:00:00 21,1 8,8 22 12 SSE 1015,0 10
17.10.2017 19:00:00 21,9 8,4 22 12 SE 1014,7 10
17.10.2017 18:00:00 22,6 7,2 21 11 SE 1014,9 10
17.10.2017 17:00:00 24,2 7,3 18 10 SSE 1015,0 10
17.10.2017 16:00:00 24,4 7,1 28 15 SE 1015,5 10
17.10.2017 15:00:00 25,0 7,6 22 12 SE 1016,4 10
17.10.2017 14:00:00 24,4 10,3 16 9 SSE 1017,8 10
17.10.2017 13:00:00 22,4 10,8 13 7 S 1019,3 10
17.10.2017 12:00:00 20,6 11,5 4 2 SSE 1020,4 10
17.10.2017 11:00:00 17,7 11,7 4 2 - 1021,7 10
17.10.2017 10:00:00 15,4 11,6 4 2 - 1022,4 10

tt = Température de l'air
td = dewpoint
ff = Vitesse du vent
dd = Direction du vent
ppp = reduced air pressure
vv = visibility

stations d'obs. à proximité